EZY93MK EGKK-LGRP

Flight info

Callsign EZY93MK
Flight time 3h 35m
Altitude 35000
Route ODVIK Y311 DVR UL9 KONAN DCT KOK UL607 REMBA DCT ARCKY DCT LIRSU DCT LALMI DCT ABTAL DCT LATLO DCT OBEDI DCT TEBLI DCT BOSNA DCT MODRA DCT MEDUX UM867 KOGAT DCT ERANA DCT TSL DCT MES UN139 LURUS UL995 CODIC
Aircraft A320/M-SDE1E2E3FGHIRWXY/LB1

Departure

Time 2026-04-14 10:38
Airport London Gatwick Airport (EGKK)

Arrival

Time 2026-04-14 14:14
Airport Rhodes International Airport "Diagoras" (LGRP)
Time Latitude Longitude Altitude Speed Heading
2026-04-14 09:55 51.16026 -0.17999 209 ft 0 kts 77°
2026-04-14 10:25 51.16023 -0.18019 213 ft 4 kts 79°
2026-04-14 10:25 51.16019 -0.18061 214 ft 4 kts 84°
2026-04-14 10:25 51.16018 -0.18103 211 ft 4 kts 99°
2026-04-14 10:25 51.16026 -0.18139 211 ft 4 kts 148°
2026-04-14 10:26 51.16032 -0.18145 213 ft 0 kts 166°
2026-04-14 10:29 51.16009 -0.18136 207 ft 8 kts 167°
2026-04-14 10:29 51.15932 -0.18108 208 ft 13 kts 167°
2026-04-14 10:30 51.15845 -0.18079 210 ft 13 kts 168°
2026-04-14 10:30 51.15756 -0.18048 203 ft 13 kts 167°
2026-04-14 10:30 51.15695 -0.18046 203 ft 8 kts 212°
2026-04-14 10:30 51.15675 -0.18132 208 ft 9 kts 258°
2026-04-14 10:31 51.15658 -0.18254 209 ft 13 kts 257°
2026-04-14 10:31 51.15635 -0.18417 203 ft 16 kts 257°
2026-04-14 10:31 51.15612 -0.18595 210 ft 17 kts 259°
2026-04-14 10:31 51.15587 -0.18771 209 ft 13 kts 256°
2026-04-14 10:32 51.15519 -0.18817 211 ft 12 kts 167°
2026-04-14 10:32 51.15438 -0.18788 203 ft 12 kts 167°
2026-04-14 10:32 51.15359 -0.18760 203 ft 11 kts 168°
2026-04-14 10:32 51.15285 -0.18735 203 ft 11 kts 167°
2026-04-14 10:33 51.15217 -0.18711 204 ft 10 kts 168°
2026-04-14 10:33 51.15151 -0.18694 203 ft 9 kts 188°
2026-04-14 10:33 51.15123 -0.18782 207 ft 10 kts 257°
2026-04-14 10:33 51.15099 -0.18950 210 ft 19 kts 257°
2026-04-14 10:34 51.15037 -0.19403 208 ft 23 kts 257°
2026-04-14 10:34 51.15002 -0.19657 208 ft 24 kts 257°
2026-04-14 10:34 51.14965 -0.19927 208 ft 26 kts 258°
2026-04-14 10:35 51.14924 -0.20218 206 ft 28 kts 256°
2026-04-14 10:35 51.14883 -0.20523 211 ft 29 kts 258°
2026-04-14 10:35 51.14839 -0.20839 213 ft 30 kts 258°
2026-04-14 10:35 51.14801 -0.21109 209 ft 23 kts 254°
2026-04-14 10:36 51.14753 -0.21284 208 ft 17 kts 229°
2026-04-14 10:36 51.14644 -0.21343 208 ft 17 kts 176°
2026-04-14 10:36 51.14537 -0.21266 202 ft 18 kts 130°
2026-04-14 10:36 51.14523 -0.21147 202 ft 0 kts 79°
2026-04-14 10:37 51.14537 -0.21040 203 ft 36 kts 78°
2026-04-14 10:37 51.14650 -0.20225 210 ft 113 kts 78°
2026-04-14 10:38 51.14859 -0.18651 218 ft 173 kts 77°
2026-04-14 10:38 51.15067 -0.16778 950 ft 171 kts 85°
2026-04-14 10:38 51.15317 -0.14880 1657 ft 181 kts 83°
2026-04-14 10:38 51.15603 -0.12807 1905 ft 203 kts 83°
2026-04-14 10:39 51.15927 -0.10498 2138 ft 226 kts 82°
2026-04-14 10:39 51.16287 -0.07924 2455 ft 249 kts 82°
2026-04-14 10:39 51.16675 -0.05151 3016 ft 262 kts 82°
2026-04-14 10:39 51.16850 -0.02269 3763 ft 262 kts 96°
2026-04-14 10:40 51.16816 0.00649 4488 ft 267 kts 95°
2026-04-14 10:40 51.16769 0.03641 5196 ft 273 kts 95°
2026-04-14 10:40 51.16715 0.06690 5936 ft 277 kts 95°
2026-04-14 10:40 51.16656 0.09797 6644 ft 282 kts 94°
2026-04-14 10:41 51.16596 0.12948 7288 ft 287 kts 94°
2026-04-14 10:41 51.16537 0.16154 7923 ft 292 kts 92°
2026-04-14 10:41 51.16517 0.19302 8470 ft 296 kts 90°
2026-04-14 10:41 51.16525 0.22584 9281 ft 299 kts 89°
2026-04-14 10:42 51.16544 0.25916 9925 ft 305 kts 88°
2026-04-14 10:42 51.16564 0.29302 10572 ft 307 kts 89°
2026-04-14 10:42 51.16580 0.32719 11222 ft 309 kts 89°
2026-04-14 10:42 51.16592 0.36168 11830 ft 313 kts 89°
2026-04-14 10:43 51.16596 0.39655 12459 ft 316 kts 89°
2026-04-14 10:43 51.16595 0.43180 13111 ft 319 kts 90°
2026-04-14 10:43 51.16594 0.46734 13712 ft 323 kts 89°
2026-04-14 10:43 51.16596 0.50337 14253 ft 326 kts 90°
2026-04-14 10:44 51.16597 0.53970 14801 ft 329 kts 89°
2026-04-14 10:44 51.16595 0.57583 15338 ft 332 kts 89°
2026-04-14 10:44 51.16592 0.61277 15891 ft 335 kts 89°
2026-04-14 10:44 51.16588 0.64997 16436 ft 338 kts 89°
2026-04-14 10:45 51.16580 0.68760 16979 ft 341 kts 89°
2026-04-14 10:45 51.16570 0.72550 17522 ft 344 kts 89°
2026-04-14 10:45 51.16560 0.76374 18067 ft 347 kts 89°
2026-04-14 10:45 51.16551 0.80227 18575 ft 350 kts 89°
2026-04-14 10:46 51.16541 0.84119 19018 ft 353 kts 88°
2026-04-14 10:46 51.16528 0.88048 19461 ft 356 kts 88°
2026-04-14 10:46 51.16514 0.92009 19906 ft 360 kts 88°
2026-04-14 10:46 51.16498 0.96015 20393 ft 362 kts 88°
2026-04-14 10:47 51.16480 1.00030 20878 ft 364 kts 88°
2026-04-14 10:47 51.16460 1.04080 21336 ft 366 kts 88°
2026-04-14 10:47 51.16439 1.08151 21772 ft 369 kts 87°
2026-04-14 10:47 51.16416 1.12263 22205 ft 372 kts 87°
2026-04-14 10:48 51.16393 1.16392 22641 ft 375 kts 87°
2026-04-14 10:48 51.16372 1.20560 23063 ft 378 kts 86°
2026-04-14 10:48 51.16349 1.24759 23477 ft 380 kts 86°
2026-04-14 10:48 51.16322 1.28986 23871 ft 383 kts 86°
2026-04-14 10:49 51.16290 1.33239 24213 ft 386 kts 86°
2026-04-14 10:49 51.16235 1.37537 24555 ft 390 kts 88°
2026-04-14 10:49 51.16091 1.41866 24876 ft 393 kts 89°
2026-04-14 10:49 51.15882 1.46217 25272 ft 394 kts 91°
2026-04-14 10:50 51.15640 1.50579 25636 ft 396 kts 91°
2026-04-14 10:50 51.15391 1.54957 25967 ft 399 kts 91°
2026-04-14 10:50 51.15146 1.59376 26288 ft 401 kts 90°
2026-04-14 10:50 51.14911 1.63813 26613 ft 404 kts 90°
2026-04-14 10:51 51.14686 1.68230 26917 ft 407 kts 90°
2026-04-14 10:51 51.14462 1.72726 27234 ft 409 kts 89°
2026-04-14 10:51 51.14240 1.77255 27547 ft 412 kts 89°
2026-04-14 10:51 51.14016 1.81813 27858 ft 415 kts 89°
2026-04-14 10:52 51.13787 1.86412 28171 ft 418 kts 89°
2026-04-14 10:52 51.13552 1.91035 28514 ft 420 kts 89°
2026-04-14 10:52 51.13311 1.95669 28931 ft 420 kts 89°
2026-04-14 10:52 51.13066 2.00304 29275 ft 421 kts 89°
2026-04-14 10:53 51.12818 2.04959 29587 ft 424 kts 89°
2026-04-14 10:53 51.12570 2.09654 29889 ft 426 kts 89°
2026-04-14 10:53 51.12321 2.14361 30170 ft 428 kts 88°
2026-04-14 10:53 51.12069 2.19097 30437 ft 430 kts 88°
2026-04-14 10:54 51.11815 2.23825 30761 ft 430 kts 89°
2026-04-14 10:54 51.11553 2.28565 31097 ft 429 kts 89°
2026-04-14 10:54 51.11287 2.33284 31422 ft 428 kts 89°
2026-04-14 10:54 51.11021 2.38000 31776 ft 427 kts 89°
2026-04-14 10:55 51.10755 2.42684 32150 ft 425 kts 89°
2026-04-14 10:55 51.10492 2.47363 32481 ft 424 kts 89°
2026-04-14 10:55 51.10231 2.52036 32789 ft 423 kts 89°
2026-04-14 10:55 51.09967 2.56699 33029 ft 424 kts 89°
2026-04-14 10:56 51.09698 2.61383 33239 ft 426 kts 89°
2026-04-14 10:56 51.09278 2.66073 33438 ft 432 kts 98°
2026-04-14 10:56 51.08487 2.70714 33614 ft 436 kts 102°
2026-04-14 10:56 51.07643 2.75354 33763 ft 439 kts 102°
2026-04-14 10:57 51.06794 2.80033 33901 ft 441 kts 102°
2026-04-14 10:57 51.05940 2.84739 34071 ft 444 kts 102°
2026-04-14 10:57 51.05083 2.89452 34204 ft 446 kts 102°
2026-04-14 10:57 51.04218 2.94204 34326 ft 448 kts 102°
2026-04-14 10:58 51.03349 2.98963 34442 ft 450 kts 102°
2026-04-14 10:58 51.02472 3.03738 34561 ft 452 kts 102°
2026-04-14 10:58 51.01589 3.08543 34676 ft 454 kts 102°
2026-04-14 10:58 51.00701 3.13360 34803 ft 455 kts 102°
2026-04-14 10:59 50.99809 3.18190 34910 ft 457 kts 102°
2026-04-14 10:59 50.98910 3.23042 35036 ft 459 kts 102°
2026-04-14 10:59 50.98006 3.27889 35166 ft 460 kts 102°
2026-04-14 11:00 50.96170 3.37700 35201 ft 468 kts 103°
2026-04-14 11:00 50.94291 3.47677 35196 ft 474 kts 103°
2026-04-14 11:01 50.92400 3.57690 35195 ft 475 kts 103°
2026-04-14 11:01 50.90497 3.67712 35198 ft 475 kts 103°
2026-04-14 11:02 50.88570 3.77719 35232 ft 475 kts 104°
2026-04-14 11:02 50.86638 3.87712 35229 ft 474 kts 104°
2026-04-14 11:03 50.84696 3.97682 35226 ft 474 kts 104°
2026-04-14 11:03 50.82756 4.07570 35226 ft 474 kts 104°
2026-04-14 11:04 50.80800 4.17512 35228 ft 473 kts 104°
2026-04-14 11:04 50.78838 4.27437 35218 ft 473 kts 104°
2026-04-14 11:05 50.76869 4.37358 35222 ft 473 kts 104°
2026-04-14 11:05 50.74896 4.47254 35223 ft 473 kts 104°
2026-04-14 11:06 50.72900 4.57162 35224 ft 473 kts 104°
2026-04-14 11:06 50.70924 4.67054 35240 ft 472 kts 104°
2026-04-14 11:07 50.69016 4.76949 35233 ft 471 kts 104°
2026-04-14 11:07 50.67118 4.86816 35239 ft 470 kts 104°
2026-04-14 11:08 50.64774 4.96429 35236 ft 472 kts 112°
2026-04-14 11:08 50.62017 5.05819 35233 ft 471 kts 112°
2026-04-14 11:09 50.59276 5.15177 35246 ft 471 kts 112°
2026-04-14 11:09 50.56537 5.24534 35237 ft 470 kts 112°
2026-04-14 11:10 50.52403 5.38507 35230 ft 469 kts 112°
2026-04-14 11:10 50.49660 5.47728 35221 ft 469 kts 112°
2026-04-14 11:11 50.46902 5.56999 35228 ft 469 kts 112°
2026-04-14 11:11 50.44141 5.66247 35228 ft 468 kts 112°
2026-04-14 11:12 50.41365 5.75485 35222 ft 467 kts 112°
2026-04-14 11:12 50.38594 5.84691 35219 ft 467 kts 113°
2026-04-14 11:13 50.35810 5.93880 35210 ft 467 kts 113°
2026-04-14 11:13 50.33020 6.03050 35220 ft 466 kts 113°
2026-04-14 11:14 50.30227 6.12192 35216 ft 465 kts 113°
2026-04-14 11:14 50.27290 6.21192 35214 ft 464 kts 117°
2026-04-14 11:15 50.24134 6.29995 35193 ft 464 kts 117°
2026-04-14 11:15 50.20960 6.38763 35192 ft 464 kts 117°
2026-04-14 11:16 50.17841 6.47576 35194 ft 463 kts 117°
2026-04-14 11:16 50.14846 6.56433 35208 ft 461 kts 116°
2026-04-14 11:17 50.11901 6.65302 35209 ft 460 kts 116°
2026-04-14 11:17 50.08929 6.74130 35206 ft 460 kts 116°
2026-04-14 11:18 50.06435 6.81428 35206 ft 459 kts 116°
2026-04-14 11:18 50.03423 6.90186 35210 ft 459 kts 117°
2026-04-14 11:19 50.00407 6.98934 35210 ft 458 kts 117°
2026-04-14 11:19 49.97404 7.07660 35203 ft 457 kts 117°
2026-04-14 11:20 49.94405 7.16367 35205 ft 457 kts 117°
2026-04-14 11:20 49.91389 7.25051 35198 ft 457 kts 117°
2026-04-14 11:21 49.88364 7.33710 35211 ft 456 kts 117°
2026-04-14 11:21 49.85344 7.42362 35209 ft 456 kts 117°
2026-04-14 11:22 49.82324 7.50989 35207 ft 456 kts 118°
2026-04-14 11:22 49.79290 7.59601 35204 ft 455 kts 118°
2026-04-14 11:23 49.76276 7.68142 35201 ft 455 kts 118°
2026-04-14 11:23 49.73237 7.76726 35208 ft 455 kts 118°
2026-04-14 11:24 49.70196 7.85276 35203 ft 454 kts 118°
2026-04-14 11:24 49.67155 7.93821 35204 ft 454 kts 118°
2026-04-14 11:25 49.64104 8.02354 35201 ft 453 kts 118°
2026-04-14 11:25 49.61048 8.10855 35203 ft 453 kts 118°
2026-04-14 11:26 49.57991 8.19342 35207 ft 453 kts 118°
2026-04-14 11:26 49.54935 8.27808 35203 ft 452 kts 118°
2026-04-14 11:27 49.51873 8.36261 35202 ft 452 kts 118°
2026-04-14 11:27 49.48812 8.44688 35205 ft 451 kts 118°
2026-04-14 11:28 49.45739 8.53103 35203 ft 451 kts 119°
2026-04-14 11:28 49.42661 8.61506 35201 ft 451 kts 119°
2026-04-14 11:29 49.39581 8.69909 35194 ft 451 kts 118°
2026-04-14 11:29 49.36492 8.78289 35191 ft 451 kts 119°
2026-04-14 11:30 49.33394 8.86649 35187 ft 451 kts 119°
2026-04-14 11:30 49.30258 8.94970 35186 ft 451 kts 120°
2026-04-14 11:31 49.27098 9.03261 35191 ft 450 kts 120°
2026-04-14 11:31 49.23966 9.11469 35186 ft 449 kts 120°
2026-04-14 11:32 49.20822 9.19725 35184 ft 449 kts 120°
2026-04-14 11:32 49.17672 9.27962 35181 ft 449 kts 120°
2026-04-14 11:33 49.14522 9.36174 35184 ft 448 kts 121°
2026-04-14 11:34 49.09786 9.48473 35195 ft 447 kts 121°
2026-04-14 11:34 49.06628 9.56638 35196 ft 447 kts 121°
2026-04-14 11:35 49.03467 9.64788 35203 ft 446 kts 121°
2026-04-14 11:35 49.00303 9.72926 35198 ft 446 kts 121°
2026-04-14 11:36 48.97136 9.81038 35202 ft 445 kts 121°
2026-04-14 11:36 48.93967 9.89123 35198 ft 444 kts 121°
2026-04-14 11:37 48.90803 9.97196 35189 ft 444 kts 121°
2026-04-14 11:37 48.87628 10.05242 35189 ft 443 kts 121°
2026-04-14 11:38 48.84441 10.13257 35184 ft 443 kts 121°
2026-04-14 11:38 48.81185 10.21189 35201 ft 442 kts 122°
2026-04-14 11:39 48.77895 10.29059 35196 ft 442 kts 122°
2026-04-14 11:39 48.74605 10.36917 35196 ft 441 kts 122°
2026-04-14 11:40 48.71322 10.44769 35194 ft 441 kts 122°
2026-04-14 11:40 48.68040 10.52611 35180 ft 441 kts 122°
2026-04-14 11:41 48.64759 10.60440 35186 ft 441 kts 122°
2026-04-14 11:41 48.61472 10.68265 35180 ft 441 kts 122°
2026-04-14 11:42 48.58182 10.76074 35179 ft 441 kts 122°
2026-04-14 11:42 48.54884 10.83870 35169 ft 441 kts 122°
2026-04-14 11:43 48.51578 10.91662 35168 ft 441 kts 123°
2026-04-14 11:43 48.48271 10.99425 35169 ft 440 kts 123°
2026-04-14 11:44 48.44980 11.07136 35168 ft 440 kts 124°
2026-04-14 11:44 48.41660 11.14897 35169 ft 440 kts 123°
2026-04-14 11:45 48.38342 11.22634 35163 ft 440 kts 124°
2026-04-14 11:45 48.35019 11.30363 35163 ft 440 kts 124°
2026-04-14 11:46 48.31692 11.38069 35171 ft 439 kts 124°
2026-04-14 11:46 48.28370 11.45748 35156 ft 438 kts 124°
2026-04-14 11:47 48.25040 11.53409 35153 ft 438 kts 124°
2026-04-14 11:47 48.21710 11.61050 35151 ft 438 kts 124°
2026-04-14 11:48 48.18378 11.68688 35149 ft 437 kts 125°
2026-04-14 11:48 48.15043 11.76307 35151 ft 437 kts 125°
2026-04-14 11:49 48.11704 11.83902 35155 ft 437 kts 126°
2026-04-14 11:49 48.08355 11.91496 35156 ft 437 kts 126°
2026-04-14 11:50 48.05011 11.99079 35152 ft 437 kts 126°
2026-04-14 11:50 48.01660 12.06646 35147 ft 437 kts 126°
2026-04-14 11:51 47.96647 12.17942 35154 ft 437 kts 126°
2026-04-14 11:51 47.93264 12.25531 35155 ft 437 kts 126°
2026-04-14 11:52 47.89885 12.33081 35154 ft 437 kts 126°
2026-04-14 11:52 47.86502 12.40614 35156 ft 437 kts 126°
2026-04-14 11:53 47.83120 12.48128 35157 ft 437 kts 126°
2026-04-14 11:53 47.79759 12.55591 35154 ft 437 kts 126°
2026-04-14 11:54 47.76376 12.63098 35150 ft 437 kts 126°
2026-04-14 11:54 47.72984 12.70596 35136 ft 437 kts 126°
2026-04-14 11:55 47.69581 12.78058 35139 ft 436 kts 127°
2026-04-14 11:55 47.65620 12.84785 35139 ft 432 kts 137°
2026-04-14 11:56 47.61362 12.91069 35143 ft 432 kts 137°
2026-04-14 11:56 47.57103 12.97360 35137 ft 432 kts 137°
2026-04-14 11:57 47.52851 13.03635 35130 ft 432 kts 137°
2026-04-14 11:57 47.48591 13.09897 35134 ft 431 kts 137°
2026-04-14 11:58 47.44341 13.16128 35121 ft 430 kts 137°
2026-04-14 11:58 47.40098 13.22337 35128 ft 429 kts 138°
2026-04-14 11:59 47.35852 13.28521 35116 ft 429 kts 138°
2026-04-14 11:59 47.31649 13.34670 35111 ft 429 kts 136°
2026-04-14 12:00 47.27659 13.41211 35102 ft 429 kts 133°
2026-04-14 12:00 47.23802 13.47913 35092 ft 429 kts 133°
2026-04-14 12:01 47.19898 13.54548 35094 ft 428 kts 134°
2026-04-14 12:01 47.15938 13.61082 35097 ft 428 kts 135°
2026-04-14 12:02 47.11976 13.67597 35088 ft 427 kts 135°
2026-04-14 12:02 47.08026 13.74116 35077 ft 428 kts 135°
2026-04-14 12:03 47.04078 13.80635 35075 ft 427 kts 135°
2026-04-14 12:03 47.00125 13.87143 35075 ft 428 kts 135°
2026-04-14 12:04 46.96167 13.93644 35081 ft 428 kts 135°
2026-04-14 12:04 46.92203 14.00124 35088 ft 427 kts 135°
2026-04-14 12:05 46.88240 14.06585 35100 ft 426 kts 135°
2026-04-14 12:05 46.84283 14.13024 35105 ft 425 kts 135°
2026-04-14 12:06 46.80335 14.19447 35119 ft 425 kts 135°
2026-04-14 12:06 46.77051 14.24770 35115 ft 424 kts 135°
2026-04-14 12:07 46.73097 14.31160 35117 ft 424 kts 135°
2026-04-14 12:07 46.69138 14.37533 35110 ft 424 kts 135°
2026-04-14 12:08 46.65175 14.43909 35099 ft 425 kts 135°
2026-04-14 12:08 46.61207 14.50295 35093 ft 426 kts 135°
2026-04-14 12:09 46.57226 14.56677 35090 ft 426 kts 135°
2026-04-14 12:09 46.53243 14.63030 35084 ft 426 kts 135°
2026-04-14 12:10 46.49253 14.69402 35062 ft 426 kts 135°
2026-04-14 12:10 46.45259 14.75770 35057 ft 427 kts 135°
2026-04-14 12:11 46.41251 14.82125 35061 ft 427 kts 135°
2026-04-14 12:11 46.37228 14.88480 35063 ft 428 kts 135°
2026-04-14 12:12 46.33207 14.94820 35069 ft 428 kts 135°
2026-04-14 12:12 46.29189 15.01156 35058 ft 428 kts 135°
2026-04-14 12:13 46.25161 15.07490 35083 ft 428 kts 135°
2026-04-14 12:13 46.21130 15.13811 35083 ft 428 kts 135°
2026-04-14 12:14 46.17128 15.20071 35083 ft 428 kts 135°
2026-04-14 12:14 46.13090 15.26378 35083 ft 427 kts 135°
2026-04-14 12:15 46.09052 15.32670 35082 ft 427 kts 135°
2026-04-14 12:15 46.05011 15.38950 35083 ft 427 kts 135°
2026-04-14 12:16 46.00966 15.45221 35086 ft 427 kts 135°
2026-04-14 12:16 45.96926 15.51475 35085 ft 427 kts 135°
2026-04-14 12:17 45.92878 15.57728 35086 ft 427 kts 135°
2026-04-14 12:17 45.88825 15.63971 35087 ft 427 kts 135°
2026-04-14 12:18 45.84770 15.70195 35085 ft 427 kts 135°
2026-04-14 12:18 45.80711 15.76416 35083 ft 427 kts 135°
2026-04-14 12:19 45.76652 15.82616 35082 ft 427 kts 136°
2026-04-14 12:19 45.72591 15.88803 35061 ft 427 kts 135°
2026-04-14 12:20 45.68521 15.94994 35051 ft 427 kts 136°
2026-04-14 12:20 45.64440 16.01190 35046 ft 428 kts 136°
2026-04-14 12:21 45.60357 16.07380 35048 ft 428 kts 136°
2026-04-14 12:21 45.56263 16.13562 35046 ft 428 kts 136°
2026-04-14 12:22 45.52163 16.19743 35038 ft 429 kts 136°
2026-04-14 12:22 45.48056 16.25928 35035 ft 430 kts 136°
2026-04-14 12:23 45.43943 16.32118 35039 ft 431 kts 136°
2026-04-14 12:23 45.39837 16.38262 35035 ft 431 kts 136°
2026-04-14 12:24 45.35681 16.44472 35041 ft 431 kts 136°
2026-04-14 12:24 45.31535 16.50654 35024 ft 432 kts 136°
2026-04-14 12:25 45.27414 16.56794 35024 ft 433 kts 136°
2026-04-14 12:25 45.23252 16.62977 35027 ft 434 kts 136°
2026-04-14 12:26 45.19058 16.69137 35029 ft 434 kts 138°
2026-04-14 12:26 45.14695 16.75027 35024 ft 433 kts 140°
2026-04-14 12:27 45.10243 16.80790 35018 ft 434 kts 140°
2026-04-14 12:27 45.05801 16.86581 35020 ft 435 kts 140°
2026-04-14 12:28 45.01374 16.92429 35018 ft 435 kts 139°
2026-04-14 12:28 44.96956 16.98277 35020 ft 436 kts 139°
2026-04-14 12:29 44.92516 17.04119 35014 ft 436 kts 139°
2026-04-14 12:29 44.88076 17.09947 35015 ft 436 kts 139°
2026-04-14 12:30 44.83622 17.15774 35017 ft 436 kts 140°
2026-04-14 12:30 44.79173 17.21590 35022 ft 436 kts 140°
2026-04-14 12:31 44.74718 17.27397 35026 ft 437 kts 140°
2026-04-14 12:31 44.70256 17.33193 35018 ft 437 kts 139°
2026-04-14 12:32 44.65793 17.38981 35019 ft 437 kts 139°
2026-04-14 12:32 44.61325 17.44770 35012 ft 437 kts 140°
2026-04-14 12:33 44.56855 17.50540 35013 ft 437 kts 140°
2026-04-14 12:33 44.52385 17.56299 35009 ft 436 kts 140°
2026-04-14 12:34 44.47913 17.62050 35008 ft 437 kts 139°
2026-04-14 12:34 44.43429 17.67810 35002 ft 437 kts 139°
2026-04-14 12:35 44.38944 17.73562 35002 ft 438 kts 139°
2026-04-14 12:35 44.34490 17.79356 35005 ft 438 kts 138°
2026-04-14 12:36 44.30195 17.85333 34998 ft 439 kts 136°
2026-04-14 12:36 44.25898 17.91409 34996 ft 440 kts 137°
2026-04-14 12:37 44.21559 17.97439 34995 ft 440 kts 137°
2026-04-14 12:37 44.17191 18.03411 34998 ft 441 kts 137°
2026-04-14 12:38 44.10631 18.12390 34997 ft 441 kts 137°
2026-04-14 12:39 44.06256 18.18376 35007 ft 441 kts 137°
2026-04-14 12:39 44.01872 18.24353 35017 ft 441 kts 137°
2026-04-14 12:40 43.97481 18.30323 35028 ft 441 kts 137°
2026-04-14 12:40 43.93093 18.36278 35029 ft 441 kts 138°
2026-04-14 12:41 43.88701 18.42231 35029 ft 442 kts 137°
2026-04-14 12:41 43.84309 18.48177 35023 ft 442 kts 139°
2026-04-14 12:42 43.79909 18.54124 35022 ft 442 kts 138°
2026-04-14 12:42 43.75503 18.60054 35021 ft 442 kts 139°
2026-04-14 12:43 43.71091 18.65977 35015 ft 442 kts 138°
2026-04-14 12:43 43.66673 18.71892 35021 ft 442 kts 138°
2026-04-14 12:44 43.62254 18.77808 35013 ft 442 kts 138°
2026-04-14 12:44 43.57840 18.83708 35014 ft 442 kts 138°
2026-04-14 12:45 43.51208 18.92536 35021 ft 442 kts 138°
2026-04-14 12:45 43.46789 18.98407 35033 ft 442 kts 138°
2026-04-14 12:46 43.42364 19.04267 35021 ft 441 kts 139°
2026-04-14 12:46 43.37932 19.10109 35022 ft 441 kts 139°
2026-04-14 12:47 43.33502 19.15955 35005 ft 442 kts 139°
2026-04-14 12:47 43.29096 19.21768 35006 ft 442 kts 140°
2026-04-14 12:48 43.24650 19.27605 35015 ft 442 kts 140°
2026-04-14 12:48 43.20200 19.33437 35017 ft 443 kts 139°
2026-04-14 12:49 43.15744 19.39272 35011 ft 443 kts 140°
2026-04-14 12:49 43.11279 19.45097 35017 ft 443 kts 140°
2026-04-14 12:50 43.04572 19.53816 35013 ft 443 kts 140°
2026-04-14 12:51 43.00175 19.59736 35014 ft 446 kts 133°
2026-04-14 12:51 42.96250 19.66313 35011 ft 447 kts 132°
2026-04-14 12:52 42.92331 19.72905 35024 ft 448 kts 132°
2026-04-14 12:52 42.88429 19.79444 35028 ft 447 kts 133°
2026-04-14 12:53 42.84485 19.86020 35009 ft 448 kts 133°
2026-04-14 12:53 42.80532 19.92594 35010 ft 449 kts 133°
2026-04-14 12:54 42.76570 19.99173 35017 ft 449 kts 133°
2026-04-14 12:54 42.72606 20.05745 35027 ft 450 kts 133°
2026-04-14 12:55 42.68633 20.12321 35042 ft 450 kts 133°
2026-04-14 12:55 42.64648 20.18885 35025 ft 451 kts 133°
2026-04-14 12:56 42.61330 20.24342 35035 ft 451 kts 133°
2026-04-14 12:56 42.57339 20.30911 35031 ft 452 kts 134°
2026-04-14 12:57 42.53322 20.37497 35036 ft 453 kts 134°
2026-04-14 12:57 42.49293 20.44071 35040 ft 454 kts 134°
2026-04-14 12:58 42.45251 20.50654 35034 ft 454 kts 135°
2026-04-14 12:58 42.41200 20.57244 35040 ft 456 kts 135°
2026-04-14 12:59 42.37143 20.63832 35054 ft 456 kts 135°
2026-04-14 12:59 42.33078 20.70426 35057 ft 456 kts 135°
2026-04-14 13:00 42.29012 20.77007 35068 ft 456 kts 135°
2026-04-14 13:00 42.24941 20.83577 35072 ft 456 kts 135°
2026-04-14 13:01 42.20867 20.90130 35085 ft 456 kts 135°
2026-04-14 13:01 42.16822 20.96637 35089 ft 456 kts 135°
2026-04-14 13:02 42.12743 21.03164 35094 ft 456 kts 135°
2026-04-14 13:02 42.08365 21.09235 35095 ft 450 kts 142°
2026-04-14 13:03 42.03808 21.15027 35088 ft 451 kts 142°
2026-04-14 13:03 41.99250 21.20809 35089 ft 450 kts 143°
2026-04-14 13:04 41.94693 21.26577 35098 ft 450 kts 143°
2026-04-14 13:04 41.90139 21.32341 35105 ft 450 kts 143°
2026-04-14 13:05 41.85570 21.38100 35104 ft 450 kts 143°
2026-04-14 13:05 41.81033 21.43807 35117 ft 450 kts 143°
2026-04-14 13:06 41.76470 21.49529 35102 ft 450 kts 144°
2026-04-14 13:06 41.71901 21.55251 35120 ft 449 kts 144°
2026-04-14 13:07 41.67332 21.60960 35123 ft 449 kts 145°
2026-04-14 13:07 41.62739 21.66694 35128 ft 449 kts 145°
2026-04-14 13:08 41.58206 21.72347 35127 ft 449 kts 145°
2026-04-14 13:08 41.53609 21.78057 35132 ft 448 kts 145°
2026-04-14 13:09 41.49074 21.83680 35111 ft 448 kts 146°
2026-04-14 13:09 41.44519 21.89319 35123 ft 447 kts 146°
2026-04-14 13:10 41.39952 21.94957 35140 ft 447 kts 146°
2026-04-14 13:10 41.35386 22.00581 35145 ft 447 kts 146°
2026-04-14 13:11 41.30816 22.06194 35149 ft 447 kts 146°
2026-04-14 13:11 41.26252 22.11797 35162 ft 447 kts 146°
2026-04-14 13:12 41.21690 22.17396 35138 ft 447 kts 147°
2026-04-14 13:12 41.17117 22.22995 35159 ft 448 kts 147°
2026-04-14 13:13 41.12444 22.28383 35175 ft 443 kts 151°
2026-04-14 13:13 41.07633 22.33451 35181 ft 441 kts 152°
2026-04-14 13:14 41.02849 22.38449 35187 ft 441 kts 152°
2026-04-14 13:14 40.98060 22.43549 35176 ft 442 kts 152°
2026-04-14 13:15 40.93279 22.48686 35168 ft 443 kts 152°
2026-04-14 13:15 40.88488 22.53828 35175 ft 444 kts 152°
2026-04-14 13:16 40.83687 22.58952 35185 ft 444 kts 152°
2026-04-14 13:16 40.78885 22.64055 35194 ft 444 kts 152°
2026-04-14 13:17 40.74075 22.69157 35200 ft 444 kts 152°
2026-04-14 13:17 40.69257 22.74265 35198 ft 443 kts 152°
2026-04-14 13:18 40.64457 22.79349 35202 ft 443 kts 152°
2026-04-14 13:18 40.59689 22.84384 35206 ft 442 kts 152°
2026-04-14 13:19 40.54886 22.89444 35227 ft 442 kts 152°
2026-04-14 13:19 40.50085 22.94480 35228 ft 442 kts 152°
2026-04-14 13:20 40.45325 22.99624 35222 ft 449 kts 145°
2026-04-14 13:20 40.40990 23.05608 35222 ft 453 kts 143°
2026-04-14 13:21 40.36661 23.11614 35196 ft 453 kts 143°
2026-04-14 13:21 40.32317 23.17602 35198 ft 454 kts 143°
2026-04-14 13:22 40.27963 23.23598 35172 ft 454 kts 143°
2026-04-14 13:22 40.23606 23.29592 35176 ft 455 kts 143°
2026-04-14 13:23 40.19236 23.35593 35193 ft 455 kts 143°
2026-04-14 13:23 40.14866 23.41575 35178 ft 455 kts 143°
2026-04-14 13:24 40.10503 23.47549 35175 ft 455 kts 144°
2026-04-14 13:24 40.03934 23.56500 35176 ft 455 kts 144°
2026-04-14 13:25 39.99544 23.62463 35179 ft 456 kts 144°
2026-04-14 13:26 39.90760 23.74376 35184 ft 456 kts 144°
2026-04-14 13:26 39.86360 23.80321 35170 ft 456 kts 144°
2026-04-14 13:27 39.81956 23.86257 35177 ft 456 kts 144°
2026-04-14 13:27 39.77589 23.92141 35183 ft 455 kts 144°
2026-04-14 13:28 39.73184 23.98064 35187 ft 455 kts 144°
2026-04-14 13:28 39.68749 24.04007 35186 ft 455 kts 144°
2026-04-14 13:29 39.64370 24.09877 35176 ft 455 kts 144°
2026-04-14 13:29 39.59953 24.15776 35162 ft 456 kts 144°
2026-04-14 13:30 39.55540 24.21663 35171 ft 456 kts 144°
2026-04-14 13:30 39.51123 24.27541 35179 ft 455 kts 144°
2026-04-14 13:31 39.46698 24.33426 35180 ft 455 kts 144°
2026-04-14 13:31 39.42280 24.39285 35166 ft 455 kts 144°
2026-04-14 13:32 39.37852 24.45138 35164 ft 456 kts 144°
2026-04-14 13:32 39.33406 24.51010 35163 ft 457 kts 144°
2026-04-14 13:33 39.28962 24.56879 35154 ft 457 kts 143°
2026-04-14 13:33 39.24505 24.62746 35161 ft 457 kts 144°
2026-04-14 13:34 39.17807 24.71514 35173 ft 458 kts 144°
2026-04-14 13:35 39.13346 24.77359 35176 ft 458 kts 144°
2026-04-14 13:35 39.08877 24.83213 35176 ft 458 kts 144°
2026-04-14 13:36 39.04405 24.89056 35183 ft 458 kts 144°
2026-04-14 13:36 38.99929 24.94878 35162 ft 458 kts 143°
2026-04-14 13:37 38.95477 25.00654 35168 ft 458 kts 143°
2026-04-14 13:37 38.90977 25.06476 35149 ft 460 kts 143°
2026-04-14 13:38 38.86472 25.12314 35157 ft 461 kts 143°
2026-04-14 13:38 38.81948 25.18157 35164 ft 462 kts 143°
2026-04-14 13:39 38.77423 25.24000 35166 ft 462 kts 143°
2026-04-14 13:39 38.72881 25.29839 35173 ft 462 kts 144°
2026-04-14 13:40 38.68336 25.35657 35147 ft 462 kts 144°
2026-04-14 13:40 38.63792 25.41494 35160 ft 463 kts 143°
2026-04-14 13:41 38.59236 25.47334 35168 ft 464 kts 144°
2026-04-14 13:41 38.54676 25.53154 35176 ft 464 kts 144°
2026-04-14 13:42 38.50111 25.58978 35178 ft 464 kts 144°
2026-04-14 13:42 38.45545 25.64792 35177 ft 464 kts 144°
2026-04-14 13:43 38.40968 25.70593 35164 ft 464 kts 143°
2026-04-14 13:43 38.36386 25.76396 35169 ft 464 kts 143°
2026-04-14 13:44 38.31804 25.82199 35175 ft 464 kts 143°
2026-04-14 13:44 38.27176 25.87911 35178 ft 458 kts 149°
2026-04-14 13:44 38.24619 25.90252 35182 ft 447 kts 159°
2026-04-14 13:45 38.21898 25.92038 35180 ft 436 kts 167°
2026-04-14 13:45 38.16250 25.94653 35179 ft 431 kts 170°
2026-04-14 13:46 38.10596 25.97232 35152 ft 433 kts 170°
2026-04-14 13:46 38.05881 25.99379 35157 ft 434 kts 170°
2026-04-14 13:47 37.99261 26.02390 35162 ft 435 kts 170°
2026-04-14 13:47 37.94483 26.04560 35165 ft 435 kts 170°
2026-04-14 13:48 37.88776 26.07142 35151 ft 436 kts 169°
2026-04-14 13:48 37.83060 26.09723 35158 ft 437 kts 169°
2026-04-14 13:49 37.77329 26.12307 35158 ft 437 kts 169°
2026-04-14 13:49 37.71593 26.14895 35163 ft 438 kts 169°
2026-04-14 13:50 37.65946 26.17440 35170 ft 438 kts 169°
2026-04-14 13:50 37.60116 26.20055 35185 ft 438 kts 170°
2026-04-14 13:51 37.54414 26.22612 35184 ft 438 kts 169°
2026-04-14 13:51 37.48633 26.25203 35192 ft 438 kts 170°
2026-04-14 13:52 37.42885 26.27766 35180 ft 438 kts 169°
2026-04-14 13:52 37.37167 26.30309 35168 ft 440 kts 170°
2026-04-14 13:53 37.31396 26.32872 35169 ft 441 kts 170°
2026-04-14 13:53 37.25615 26.35452 35171 ft 441 kts 169°
2026-04-14 13:54 37.19826 26.38027 35164 ft 442 kts 169°
2026-04-14 13:54 37.14000 26.40611 35141 ft 446 kts 170°
2026-04-14 13:55 37.08133 26.43215 35141 ft 448 kts 170°
2026-04-14 13:55 37.02241 26.45820 35159 ft 450 kts 170°
2026-04-14 13:56 36.96334 26.48421 34738 ft 452 kts 170°
2026-04-14 13:56 36.93367 26.49835 33891 ft 463 kts 162°
2026-04-14 13:56 36.90612 26.51994 33221 ft 474 kts 147°
2026-04-14 13:56 36.88285 26.54954 32637 ft 483 kts 132°
2026-04-14 13:57 36.86561 26.58567 32096 ft 487 kts 117°
2026-04-14 13:57 36.85226 26.62437 31558 ft 483 kts 117°
2026-04-14 13:57 36.83915 26.66272 31066 ft 478 kts 116°
2026-04-14 13:57 36.82615 26.70077 30394 ft 477 kts 116°
2026-04-14 13:58 36.81302 26.73902 29554 ft 479 kts 116°
2026-04-14 13:58 36.79993 26.77711 28899 ft 476 kts 116°
2026-04-14 13:58 36.78695 26.81487 28321 ft 471 kts 116°
2026-04-14 13:58 36.77410 26.85216 27765 ft 467 kts 116°
2026-04-14 13:59 36.76133 26.88917 27203 ft 463 kts 116°
2026-04-14 13:59 36.74864 26.92591 26511 ft 461 kts 116°
2026-04-14 13:59 36.73579 26.96297 25625 ft 466 kts 116°
2026-04-14 13:59 36.72292 26.99996 24967 ft 464 kts 116°
2026-04-14 14:00 36.71011 27.03670 24407 ft 460 kts 117°
2026-04-14 14:00 36.69759 27.07256 23869 ft 455 kts 117°
2026-04-14 14:00 36.68505 27.10844 23273 ft 451 kts 116°
2026-04-14 14:00 36.67257 27.14422 22684 ft 446 kts 116°
2026-04-14 14:01 36.66025 27.17950 22116 ft 442 kts 116°
2026-04-14 14:01 36.64800 27.21456 21493 ft 441 kts 116°
2026-04-14 14:01 36.63582 27.24937 20941 ft 438 kts 115°
2026-04-14 14:01 36.62366 27.28406 20431 ft 435 kts 115°
2026-04-14 14:02 36.61161 27.31837 19938 ft 431 kts 115°
2026-04-14 14:02 36.59961 27.35244 19454 ft 428 kts 115°
2026-04-14 14:02 36.58772 27.38623 18977 ft 425 kts 115°
2026-04-14 14:02 36.57591 27.41974 18523 ft 422 kts 114°
2026-04-14 14:03 36.56418 27.45307 18002 ft 419 kts 114°
2026-04-14 14:03 36.55254 27.48612 17483 ft 415 kts 114°
2026-04-14 14:03 36.54098 27.51887 16958 ft 413 kts 115°
2026-04-14 14:03 36.52952 27.55124 16244 ft 405 kts 115°
2026-04-14 14:04 36.51821 27.58317 15326 ft 401 kts 115°
2026-04-14 14:04 36.50707 27.61463 14463 ft 395 kts 116°
2026-04-14 14:04 36.49605 27.64573 13575 ft 390 kts 116°
2026-04-14 14:04 36.48519 27.67633 12660 ft 384 kts 116°
2026-04-14 14:05 36.47449 27.70637 11789 ft 377 kts 116°
2026-04-14 14:05 36.46395 27.73595 10923 ft 371 kts 115°
2026-04-14 14:05 36.45355 27.76490 10077 ft 364 kts 115°
2026-04-14 14:05 36.44319 27.79338 9383 ft 360 kts 115°
2026-04-14 14:06 36.43296 27.82135 8547 ft 352 kts 115°
2026-04-14 14:06 36.42592 27.85001 7682 ft 345 kts 96°
2026-04-14 14:06 36.42762 27.87922 6964 ft 334 kts 76°
2026-04-14 14:06 36.43294 27.90607 6828 ft 307 kts 76°
2026-04-14 14:07 36.43798 27.93069 6703 ft 283 kts 75°
2026-04-14 14:07 36.44265 27.95342 6582 ft 260 kts 75°
2026-04-14 14:07 36.44698 27.97441 6424 ft 243 kts 75°
2026-04-14 14:07 36.45104 27.99402 6277 ft 226 kts 75°
2026-04-14 14:08 36.45620 28.01164 6148 ft 211 kts 53°
2026-04-14 14:08 36.46721 28.02253 5969 ft 201 kts 16°
2026-04-14 14:08 36.48076 28.02295 5689 ft 196 kts 339°
2026-04-14 14:08 36.49134 28.01300 5391 ft 194 kts 302°
2026-04-14 14:09 36.49453 27.99698 5032 ft 195 kts 262°
2026-04-14 14:09 36.48887 27.98197 4654 ft 194 kts 221°
2026-04-14 14:09 36.47719 27.97457 4339 ft 189 kts 191°
2026-04-14 14:09 36.46432 27.97162 4037 ft 187 kts 186°
2026-04-14 14:10 36.45147 27.96935 3764 ft 185 kts 185°
2026-04-14 14:10 36.43875 27.96741 3500 ft 183 kts 184°
2026-04-14 14:10 36.42618 27.96582 3234 ft 180 kts 182°
2026-04-14 14:10 36.41369 27.96449 2941 ft 180 kts 182°
2026-04-14 14:11 36.40111 27.96337 2598 ft 181 kts 175°
2026-04-14 14:11 36.38951 27.96750 2399 ft 171 kts 146°
2026-04-14 14:11 36.38153 27.97833 1965 ft 174 kts 117°
2026-04-14 14:11 36.37881 27.99286 1460 ft 175 kts 89°
2026-04-14 14:12 36.38172 28.00727 1147 ft 164 kts 70°
2026-04-14 14:12 36.38559 28.01963 996 ft 147 kts 70°
2026-04-14 14:12 36.38920 28.03097 777 ft 141 kts 70°
2026-04-14 14:12 36.39248 28.04228 580 ft 139 kts 71°
2026-04-14 14:13 36.39577 28.05351 381 ft 138 kts 72°
2026-04-14 14:13 36.39911 28.06474 172 ft 139 kts 72°
2026-04-14 14:13 36.40238 28.07586 29 ft 128 kts 72°
2026-04-14 14:13 36.40487 28.08445 28 ft 81 kts 70°
2026-04-14 14:14 36.40629 28.08926 28 ft 47 kts 70°
2026-04-14 14:14 36.40670 28.09107 31 ft 12 kts 105°
2026-04-14 14:14 36.40599 28.09117 30 ft 13 kts 206°
2026-04-14 14:14 36.40519 28.09069 28 ft 7 kts 206°
2026-04-14 14:15 36.40486 28.09050 28 ft 5 kts 206°
2026-04-14 14:15 36.40460 28.09034 28 ft 4 kts 206°
2026-04-14 14:15 36.40421 28.09010 28 ft 11 kts 209°
2026-04-14 14:15 36.40396 28.08925 28 ft 7 kts 275°
2026-04-14 14:16 36.40383 28.08886 28 ft 4 kts 192°
2026-04-14 14:16 36.40348 28.08902 28 ft 7 kts 160°
2026-04-14 14:16 36.40316 28.08916 28 ft 0 kts 160°